Temp
63 65 66 65 65 65 65 65 64 61 60 60 59 60 61 62 65 67 67 67 67 67 67 62 62 60 59 58 54 53 53 52
62 64 65 65 64 64 65 64 63 63 62 61 61 61 61 62 65 67 66 67 67 67 65 63 62 60 59 58 55 51 49 50
61 62 64 64 64 64 64 65 63 63 65 65 63 64 62 64 65 65 67 66 67 67 65 63 62 60 58 56 55 50 48 51
60 60 61 63 64 64 64 65 64 64 65 64 61 60 58 60 62 65 66 66 67 67 64 63 61 59 57 57 55 52 51 49
59 61 61 62 63 65 65 65 65 64 64 65 64 63 63 64 64 66 65 66 66 65 63 62 61 59 57 56 56 52 54 49
56 60 63 63 63 64 65 66 66 66 66 68 66 65 65 61 60 61 63 64 65 64 62 60 59 59 58 56 53 52 55 51
55 58 61 61 61 63 62 65 65 65 65 66 66 66 64 60 59 60 61 63 63 63 61 60 58 57 56 56 54 54 54 52
53 54 57 59 58 58 60 62 63 64 64 64 64 66 63 62 60 61 58 61 61 61 61 59 58 58 57 56 54 54 53 52
51 55 56 58 60 61 61 62 63 63 63 63 65 66 64 64 61 62 60 60 63 62 60 60 58 57 56 56 55 55 53 53
49 55 57 59 60 61 63 63 64 64 63 63 62 63 63 64 62 61 61 60 60 60 60 58 57 57 56 54 54 53 52 51
50 54 58 61 61 61 62 63 63 63 64 63 62 61 63 64 61 60 59 58 60 59 57 58 57 56 55 55 53 52 54 51
50 53 59 61 62 61 60 61 63 61 62 62 61 60 61 61 61 59 58 58 59 59 58 57 57 55 55 54 53 53 53 51
52 54 58 61 62 63 62 61 62 63 63 60 59 58 59 59 60 59 58 59 59 58 58 58 57 56 54 55 53 54 54 51
50 54 59 62 63 63 63 63 63 63 62 61 58 57 57 58 59 58 58 59 58 57 58 57 56 56 55 55 55 54 53 52
49 53 60 61 62 63 63 63 63 62 61 60 58 57 57 58 59 58 58 58 57 57 57 57 57 56 56 55 55 54 53 52
45 49 55 59 60 61 63 63 60 61 60 59 57 57 58 58 57 57 57 58 58 57 56 56 56 56 56 55 54 53 52 49
44 47 50 56 59 61 62 61 60 61 60 59 58 57 56 56 56 56 55 56 56 56 55 54 53 56 47 46 51 52 51 50
42 44 46 48 53 58 60 61 61 60 60 59 57 57 56 56 56 56 55 54 54 54 54 54 53 53 44 44 45 52 50 49
40 42 44 46 49 51 58 60 61 60 60 59 57 56 56 56 56 55 55 54 53 53 52 53 52 51 43 43 42 48 47 48
MSLP
1011.07 1011.24 1011.70 1012.69 1013.83 1014.51 1015.41 1016.35 1017.08 1017.68 1018.51 1019.17 1019.78 1020.21 1020.70 1020.88 1021.08 1021.33 1021.87 1022.31 1022.95 1023.53 1024.26 1025.29 1025.89 1026.57 1027.10 1028.04 1029.06 1030.03 1030.28 1030.96
1010.85 1011.31 1011.20 1012.11 1013.10 1014.15 1014.90 1015.69 1016.58 1017.34 1018.20 1019.19 1019.84 1020.13 1020.69 1021.04 1021.10 1021.23 1021.75 1022.16 1022.69 1023.23 1024.11 1025.05 1025.76 1026.30 1026.81 1027.78 1028.94 1029.85 1031.02 1031.34
1010.84 1011.20 1011.60 1011.79 1012.29 1013.05 1014.13 1014.90 1015.68 1016.60 1017.81 1018.51 1019.20 1019.93 1020.27 1020.61 1020.91 1021.26 1021.49 1021.91 1022.38 1022.87 1023.70 1024.63 1025.39 1026.31 1027.14 1027.84 1028.45 1029.79 1030.85 1031.09
1010.69 1011.06 1011.40 1011.60 1011.75 1012.28 1012.86 1013.88 1015.12 1015.82 1016.93 1018.32 1018.83 1019.64 1020.47 1020.63 1020.98 1021.15 1021.33 1021.75 1022.13 1022.63 1023.36 1024.17 1025.05 1025.90 1026.68 1027.26 1028.07 1028.74 1030.11 1030.92
1010.09 1010.31 1010.90 1011.15 1011.41 1011.57 1012.15 1013.40 1014.49 1015.21 1014.93 1017.55 1018.12 1018.55 1019.27 1019.77 1020.41 1020.79 1020.91 1021.32 1021.77 1022.42 1023.07 1023.82 1024.57 1025.50 1026.39 1026.97 1027.58 1028.32 1028.98 1030.06
1009.76 1009.79 1010.05 1010.59 1011.07 1011.22 1011.37 1012.41 1013.61 1014.38 1014.71 1014.87 1016.05 1017.73 1018.54 1019.15 1019.80 1020.55 1020.66 1020.95 1021.50 1022.15 1022.81 1023.59 1024.33 1025.00 1025.83 1026.55 1027.50 1028.14 1028.62 1029.23
1009.24 1009.19 1009.59 1009.94 1010.57 1011.19 1011.41 1011.90 1012.34 1013.62 1014.08 1014.19 1015.00 1015.95 1017.72 1018.59 1019.37 1020.07 1020.39 1020.84 1021.24 1021.86 1022.55 1023.23 1023.97 1024.66 1025.49 1026.17 1026.84 1027.39 1028.03 1028.64
1008.80 1008.76 1008.94 1009.34 1009.92 1010.64 1011.30 1011.13 1012.04 1012.90 1013.34 1013.63 1013.88 1015.55 1016.52 1017.33 1018.28 1019.10 1020.00 1020.64 1021.05 1021.52 1022.22 1022.94 1023.63 1024.13 1024.92 1025.75 1026.34 1026.90 1027.48 1028.14
1008.66 1007.77 1007.79 1008.27 1008.60 1008.96 1010.06 1010.18 1011.04 1012.05 1012.45 1013.25 1013.42 1013.89 1015.70 1016.21 1017.06 1018.14 1019.05 1019.78 1020.28 1021.00 1021.78 1022.40 1023.13 1023.76 1024.50 1025.26 1025.77 1026.28 1026.94 1027.58
1008.32 1007.54 1006.97 1007.20 1007.67 1008.22 1008.53 1009.00 1009.69 1010.77 1011.21 1012.55 1013.05 1013.76 1014.89 1015.61 1016.20 1017.29 1018.00 1018.96 1019.66 1020.43 1021.26 1021.98 1022.63 1023.28 1023.90 1024.68 1025.34 1025.93 1026.56 1027.17
1007.74 1006.90 1006.10 1006.06 1006.34 1007.01 1008.01 1008.34 1008.71 1009.62 1010.71 1011.77 1012.17 1012.99 1014.17 1015.07 1015.38 1016.43 1017.49 1018.43 1019.06 1019.91 1020.73 1021.49 1022.04 1022.81 1023.50 1024.09 1024.72 1025.41 1026.03 1026.59
1006.69 1005.64 1004.85 1005.06 1005.19 1006.09 1006.97 1007.91 1008.59 1009.45 1010.49 1011.16 1011.93 1012.48 1013.36 1014.49 1014.99 1015.67 1016.73 1017.86 1018.42 1019.24 1019.96 1020.82 1021.49 1022.13 1022.96 1023.71 1024.17 1024.74 1025.47 1026.00
1004.61 1004.12 1003.77 1004.43 1004.75 1005.40 1006.27 1006.94 1007.89 1008.74 1009.95 1011.01 1011.98 1011.87 1012.85 1014.21 1014.77 1015.07 1016.12 1017.04 1017.55 1018.32 1019.33 1020.04 1020.76 1021.46 1022.15 1023.01 1023.45 1024.10 1024.65 1025.41
1003.99 1003.55 1003.45 1003.80 1004.33 1004.81 1005.39 1006.02 1006.81 1007.90 1008.79 1010.27 1011.38 1011.88 1012.80 1013.59 1014.25 1014.66 1015.48 1016.24 1016.87 1017.90 1018.57 1019.28 1020.03 1020.74 1021.51 1022.25 1022.78 1023.29 1023.89 1024.55
1005.78 1004.22 1003.97 1004.08 1004.41 1004.78 1005.18 1005.94 1006.48 1007.46 1008.49 1009.60 1010.44 1011.05 1011.91 1012.95 1013.62 1014.05 1014.73 1015.36 1016.28 1017.22 1017.81 1018.53 1019.23 1020.04 1020.85 1021.50 1022.14 1022.79 1023.35 1023.97
1007.86 1006.30 1004.62 1004.20 1004.56 1004.91 1005.11 1005.63 1006.64 1007.12 1007.87 1008.60 1008.72 1010.11 1011.10 1012.27 1013.14 1013.46 1013.99 1014.83 1015.64 1016.50 1017.36 1018.05 1018.70 1019.43 1020.15 1020.81 1021.62 1022.27 1023.02 1023.64
1009.19 1007.59 1006.24 1005.03 1004.49 1004.71 1005.19 1005.52 1006.20 1006.96 1007.43 1008.25 1009.00 1009.47 1010.48 1011.16 1012.29 1012.99 1013.51 1014.48 1015.27 1016.09 1016.80 1017.40 1018.17 1018.76 1019.36 1020.04 1020.86 1021.86 1022.55 1023.16
1010.32 1009.28 1008.24 1006.91 1005.81 1005.17 1005.02 1005.34 1005.99 1006.36 1007.17 1007.82 1008.31 1008.84 1009.66 1010.78 1011.65 1012.60 1013.01 1013.92 1014.74 1015.58 1016.23 1016.88 1017.64 1018.26 1018.82 1019.56 1020.29 1021.31 1022.07 1022.61
1011.74 1010.55 1009.15 1008.16 1007.25 1006.27 1005.36 1005.29 1005.84 1006.16 1006.59 1007.39 1007.79 1008.47 1009.40 1010.28 1011.27 1011.95 1012.50 1013.48 1014.11 1014.98 1015.72 1016.37 1017.19 1017.84 1018.52 1019.33 1020.08 1020.78 1021.61 1022.04
Wind_Speed
14 19 21 20 17 16 16 10 11 8 6 5 4 5 4 4 7 8 12 9 11 10 9 9 8 8 9 9 9 5 8 8
8 13 19 19 18 18 18 16 12 9 6 6 6 8 6 5 7 10 12 11 13 12 9 10 9 9 10 12 10 12 4 6
8 10 14 19 21 22 21 19 16 10 7 6 4 7 5 7 7 8 13 12 14 12 12 11 11 9 11 12 13 6 3 7
12 13 14 19 22 23 22 21 17 14 7 4 3 4 3 3 6 8 10 13 15 13 12 11 11 10 11 12 11 9 9 4
13 18 17 16 20 20 20 18 18 18 23 11 13 10 10 8 7 8 9 13 15 14 12 12 12 9 11 11 10 7 10 8
14 18 21 18 16 17 21 23 21 21 20 22 16 12 8 4 6 8 11 9 13 14 13 13 11 10 12 13 9 8 9 6
12 16 18 18 14 14 14 21 21 18 16 16 16 20 12 9 10 9 8 8 8 12 13 13 12 11 12 11 11 12 11 6
11 13 15 16 17 13 14 16 18 18 18 19 18 17 16 17 15 12 10 8 7 11 13 12 11 11 12 11 12 10 10 8
11 15 16 18 20 22 21 20 18 18 15 16 16 21 13 13 15 12 10 11 10 12 12 12 12 12 11 11 9 9 8 8
13 14 15 18 19 19 22 22 21 20 22 18 15 12 16 15 16 13 12 10 9 12 13 13 13 13 13 12 9 10 8 7
18 14 17 16 18 19 18 19 21 17 18 17 17 16 16 15 15 15 13 11 12 13 13 13 13 13 12 13 9 8 11 6
23 15 17 17 18 18 20 17 17 15 16 15 17 16 15 13 15 14 15 14 14 14 15 14 14 14 12 12 11 11 12 9
17 13 15 15 17 17 19 18 17 16 16 12 14 13 13 14 14 14 14 15 14 14 14 14 13 13 13 14 13 12 13 11
5 6 11 15 15 17 19 19 18 15 14 15 14 14 14 16 15 15 14 14 14 12 13 14 14 13 13 12 13 12 11 11
19 2 7 9 11 14 16 16 15 16 15 16 17 18 18 17 15 14 15 14 15 14 13 14 13 13 13 12 12 11 10 9
19 16 4 8 11 11 11 13 13 15 16 17 19 19 17 15 14 15 13 14 14 14 13 12 12 12 10 12 11 11 11 8
19 18 17 9 7 11 13 11 12 13 13 15 14 16 16 15 13 14 14 13 13 13 13 13 12 9 13 15 13 11 10 11
19 17 15 15 11 3 8 13 12 13 15 13 12 14 15 15 14 12 14 14 12 13 12 12 12 9 16 17 15 9 10 10
17 14 14 14 13 11 5 6 12 12 14 14 13 15 16 14 15 15 13 12 14 14 12 12 10 8 16 16 15 9 7 9
Wind_Direction
197 189 178 179 181 180 171 175 171 151 137 134 129 150 178 165 181 172 168 175 165 159 153 146 143 139 138 134 128 121 131 131
188 198 178 175 173 174 179 174 171 159 154 164 174 181 181 185 186 181 174 173 170 171 151 149 151 153 148 141 131 131 96 119
187 180 185 180 176 180 182 184 165 158 174 175 167 184 189 188 188 187 184 173 172 173 159 159 155 141 143 148 150 134 96 168
200 191 191 191 188 183 181 183 172 155 167 163 115 102 69 133 186 190 190 181 176 172 164 161 154 152 158 158 156 149 156 203
204 200 193 198 198 186 183 179 178 181 166 188 192 193 195 196 189 192 189 181 176 170 164 161 159 156 160 164 164 157 157 172
204 203 202 203 198 192 183 178 184 186 192 179 177 195 194 157 160 181 188 176 177 169 164 160 164 162 165 165 158 159 170 158
211 208 204 203 194 191 187 182 180 184 185 180 184 187 185 166 165 179 185 181 170 169 166 167 167 163 164 171 169 168 174 173
217 204 197 193 188 180 188 177 181 186 185 185 178 202 183 181 172 180 169 180 183 172 170 169 174 171 170 171 169 175 177 180
250 216 199 190 193 186 187 184 181 186 182 203 199 190 191 189 178 179 179 185 181 170 176 175 173 169 168 174 178 181 181 189
281 238 209 194 191 186 181 181 187 189 187 187 184 184 192 190 178 180 177 174 172 170 173 174 173 172 170 173 179 181 177 188
282 246 215 200 193 185 182 181 178 186 193 191 185 180 190 196 174 173 175 180 169 170 170 174 173 176 174 176 178 180 186 187
273 239 215 199 195 185 184 183 182 175 186 184 189 184 182 186 186 169 174 174 171 174 176 175 175 175 177 182 183 177 187 180
247 212 208 188 198 193 189 185 183 179 181 166 187 173 175 191 192 178 169 178 176 175 178 178 176 178 176 184 181 183 185 181
269 184 194 192 195 196 196 186 183 177 165 179 180 181 182 193 193 180 174 171 171 174 174 178 179 180 180 186 184 177 180 181
359 107 205 188 199 199 195 188 173 170 173 183 185 184 190 196 194 181 175 171 168 175 180 181 180 178 181 176 174 175 179 181
351 352 248 175 187 189 187 176 175 170 177 187 183 181 190 188 187 180 169 174 177 174 173 179 175 176 179 174 176 173 178 175
346 349 350 3 184 181 184 178 180 182 179 195 182 179 177 177 180 178 165 171 172 173 178 175 177 185 172 169 167 173 174 178
343 348 350 347 350 292 199 178 179 180 190 190 176 174 178 181 176 175 169 175 169 181 179 175 183 182 167 170 164 172 175 182
341 342 353 355 345 341 295 193 186 188 190 190 176 176 179 176 179 180 176 173 177 179 183 182 178 177 167 168 166 158 170 183